| time (UTC) | temp C | wind direction | speed KPH | gust KPH | rain 1hr cm | rain 24hr cm | rain mn cm | humidity % | barometer mb |
| 20260906225901 | 42 | 229 | 0.0 | 0.0 | 0.00 | 0.00 | 0.00 | 30 | 1009.2 |
| 20260906225357 | 41 | 267 | 1.6 | 1.6 | 0.00 | 0.00 | 0.00 | 30 | 1009.2 |
| 20260906224853 | 42 | 251 | 3.2 | 3.2 | 0.00 | 0.00 | 0.00 | 29 | 1009.2 |
| 20260906224349 | 42 | 236 | 3.2 | 3.2 | 0.00 | 0.00 | 0.00 | 30 | 1009.2 |
| 20260906223845 | 42 | 226 | 1.6 | 3.2 | 0.00 | 0.00 | 0.00 | 29 | 1009.3 |
| 20260906223341 | 42 | 287 | 1.6 | 3.2 | 0.00 | 0.00 | 0.00 | 29 | 1009.4 |
| 20260906222839 | 42 | 251 | 1.6 | 3.2 | 0.00 | 0.00 | 0.00 | 29 | 1009.3 |
| 20260906222338 | 42 | 283 | 1.6 | 1.6 | 0.00 | 0.00 | 0.00 | 29 | 1009.3 |
| 20260906221836 | 42 | 256 | 1.6 | 1.6 | 0.00 | 0.00 | 0.00 | 28 | 1009.4 |
| 20260906221336 | 42 | 117 | 1.6 | 3.2 | 0.00 | 0.00 | 0.00 | 29 | 1009.3 |
| 20260906220831 | 42 | 243 | 3.2 | 3.2 | 0.00 | 0.00 | 0.00 | 29 | 1009.6 |
| 20260906220326 | 42 | 241 | 6.4 | 12.9 | 0.00 | 0.00 | 0.00 | 28 | 1009.3 |
| 20260906215825 | 41 | 253 | 1.6 | 1.6 | 0.00 | 0.00 | 0.00 | 30 | 1009.3 |
| 20260906215320 | 42 | 268 | 3.2 | 3.2 | 0.00 | 0.00 | 0.00 | 29 | 1009.1 |
| 20260906214818 | 42 | 241 | 3.2 | 3.2 | 0.00 | 0.00 | 0.00 | 28 | 1009.3 |
| 20260906214314 | 41 | 247 | 1.6 | 3.2 | 0.00 | 0.00 | 0.00 | 30 | 1009.3 |
| 20260906213813 | 41 | 218 | 3.2 | 3.2 | 0.00 | 0.00 | 0.00 | 30 | 1009.4 |
| 20260906213312 | 41 | 191 | 6.4 | 6.4 | 0.00 | 0.00 | 0.00 | 30 | 1009.4 |
| 20260906212810 | 41 | 250 | 1.6 | 3.2 | 0.00 | 0.00 | 0.00 | 31 | 1009.4 |
| 20260906212306 | 41 | 234 | 4.8 | 6.4 | 0.00 | 0.00 | 0.00 | 30 | 1009.7 |
| 20260906211805 | 41 | 268 | 1.6 | 1.6 | 0.00 | 0.00 | 0.00 | 31 | 1009.8 |
| 20260906211300 | 41 | 315 | 1.6 | 1.6 | 0.00 | 0.00 | 0.00 | 30 | 1010.0 |
| 20260906210755 | 41 | 240 | 1.6 | 3.2 | 0.00 | 0.00 | 0.00 | 28 | 1009.9 |
| 20260906210255 | 41 | 243 | 3.2 | 4.8 | 0.00 | 0.00 | 0.00 | 31 | 1010.2 |
| 20260906205750 | 41 | 284 | 1.6 | 3.2 | 0.00 | 0.00 | 0.00 | 33 | 1010.2 |
| 20260906205247 | 40 | 239 | 6.4 | 9.7 | 0.00 | 0.00 | 0.00 | 33 | 1010.2 |
| 20260906204742 | 41 | 306 | 3.2 | 3.2 | 0.00 | 0.00 | 0.00 | 31 | 1010.4 |
| 20260906204241 | 41 | 246 | 1.6 | 3.2 | 0.00 | 0.00 | 0.00 | 31 | 1010.4 |
| 20260906203740 | 41 | 218 | 9.7 | 11.3 | 0.00 | 0.00 | 0.00 | 32 | 1010.5 |
| 20260906203236 | 41 | 306 | 4.8 | 4.8 | 0.00 | 0.00 | 0.00 | 32 | 1010.4 |
| 20260906202733 | 40 | 207 | 3.2 | 4.8 | 0.00 | 0.00 | 0.00 | 34 | 1010.5 |
| 20260906202232 | 41 | 241 | 3.2 | 4.8 | 0.00 | 0.00 | 0.00 | 32 | 1010.6 |
| 20260906201727 | 41 | 247 | 3.2 | 4.8 | 0.00 | 0.00 | 0.00 | 32 | 1010.7 |
| 20260906201226 | 41 | 186 | 3.2 | 4.8 | 0.00 | 0.00 | 0.00 | 33 | 1010.5 |
| 20260906200722 | 40 | 266 | 3.2 | 4.8 | 0.00 | 0.00 | 0.00 | 33 | 1010.8 |
| 20260906200218 | 41 | 235 | 6.4 | 9.7 | 0.00 | 0.00 | 0.00 | 33 | 1010.9 |
| 20260906195713 | 41 | 204 | 3.2 | 3.2 | 0.00 | 0.00 | 0.00 | 32 | 1010.9 |
| 20260906195209 | 41 | 258 | 3.2 | 4.8 | 0.00 | 0.00 | 0.00 | 34 | 1010.9 |
| 20260906194705 | 40 | 272 | 0.0 | 1.6 | 0.00 | 0.00 | 0.00 | 35 | 1010.9 |
| 20260906194200 | 40 | 263 | 1.6 | 3.2 | 0.00 | 0.00 | 0.00 | 35 | 1011.1 |
| 20260906193655 | 40 | 188 | 4.8 | 4.8 | 0.00 | 0.00 | 0.00 | 34 | 1011.0 |
| 20260906193150 | 39 | 224 | 4.8 | 6.4 | 0.00 | 0.00 | 0.00 | 36 | 1011.1 |
| 20260906192646 | 39 | 183 | 3.2 | 4.8 | 0.00 | 0.00 | 0.00 | 36 | 1011.2 |
| 20260906192145 | 40 | 250 | 6.4 | 6.4 | 0.00 | 0.00 | 0.00 | 35 | 1011.3 |
| 20260906191640 | 40 | 281 | 0.0 | 0.0 | 0.00 | 0.00 | 0.00 | 35 | 1011.5 |
| 20260906191140 | 40 | 278 | 1.6 | 3.2 | 0.00 | 0.00 | 0.00 | 34 | 1011.4 |
| 20260906190634 | 40 | 266 | 1.6 | 1.6 | 0.00 | 0.00 | 0.00 | 35 | 1011.4 |
| 20260906190129 | 40 | 269 | 3.2 | 4.8 | 0.00 | 0.00 | 0.00 | 35 | 1011.5 |
| 20260906185627 | 40 | 258 | 1.6 | 3.2 | 0.00 | 0.00 | 0.00 | 36 | 1011.5 |
| 20260906185127 | 40 | 241 | 4.8 | 6.4 | 0.00 | 0.00 | 0.00 | 36 | 1011.5 |
| 20260906184622 | 39 | 241 | 6.4 | 9.7 | 0.00 | 0.00 | 0.00 | 35 | 1011.6 |
| 20260906184117 | 38 | 245 | 3.2 | 3.2 | 0.00 | 0.00 | 0.00 | 37 | 1011.7 |
| 20260906183613 | 38 | 249 | 1.6 | 4.8 | 0.00 | 0.00 | 0.00 | 36 | 1012.0 |
| 20260906183109 | 39 | 28 | 1.6 | 3.2 | 0.00 | 0.00 | 0.00 | 35 | 1011.8 |
| 20260906182603 | 38 | 196 | 3.2 | 4.8 | 0.00 | 0.00 | 0.00 | 36 | 1011.9 |
| 20260906182100 | 38 | 293 | 1.6 | 3.2 | 0.00 | 0.00 | 0.00 | 37 | 1011.9 |
| 20260906181555 | 38 | 283 | 6.4 | 6.4 | 0.00 | 0.00 | 0.00 | 36 | 1012.0 |
| 20260906181051 | 38 | 296 | 1.6 | 1.6 | 0.00 | 0.00 | 0.00 | 36 | 1012.3 |
| 20260906180551 | 38 | 214 | 3.2 | 3.2 | 0.00 | 0.00 | 0.00 | 37 | 1012.1 |
| 20260906180050 | 38 | 220 | 4.8 | 6.4 | 0.00 | 0.00 | 0.00 | 37 | 1012.2 |
| 20260906175549 | 38 | 226 | 3.2 | 3.2 | 0.00 | 0.00 | 0.00 | 38 | 1012.1 |
| 20260906175044 | 38 | 166 | 6.4 | 11.3 | 0.00 | 0.00 | 0.00 | 37 | 1012.4 |
| 20260906174542 | 38 | 236 | 1.6 | 3.2 | 0.00 | 0.00 | 0.00 | 38 | 1012.4 |
| 20260906174037 | 38 | 213 | 0.0 | 1.6 | 0.00 | 0.00 | 0.00 | 39 | 1012.6 |
| 20260906173532 | 38 | 251 | 1.6 | 1.6 | 0.00 | 0.00 | 0.00 | 39 | 1012.5 |
| 20260906173029 | 38 | 30 | 1.6 | 3.2 | 0.00 | 0.00 | 0.00 | 39 | 1012.5 |
| 20260906172528 | 37 | 202 | 1.6 | 3.2 | 0.00 | 0.00 | 0.00 | 40 | 1012.7 |
| 20260906172024 | 38 | 289 | 3.2 | 4.8 | 0.00 | 0.00 | 0.00 | 39 | 1012.8 |
| 20260906171518 | 38 | 238 | 1.6 | 1.6 | 0.00 | 0.00 | 0.00 | 39 | 1012.8 |
| 20260906171014 | 37 | 247 | 1.6 | 1.6 | 0.00 | 0.00 | 0.00 | 40 | 1012.9 |
| 20260906170510 | 37 | 200 | 4.8 | 4.8 | 0.00 | 0.00 | 0.00 | 41 | 1013.0 |
| 20260906170008 | 37 | 69 | 3.2 | 3.2 | 0.00 | 0.00 | 0.00 | 41 | 1012.9 |
| 20260906165506 | 37 | 207 | 4.8 | 6.4 | 0.00 | 0.00 | 0.00 | 40 | 1012.8 |
| 20260906165000 | 37 | 196 | 3.2 | 4.8 | 0.00 | 0.00 | 0.00 | 40 | 1012.9 |
| 20260906164459 | 37 | 297 | 1.6 | 3.2 | 0.00 | 0.00 | 0.00 | 42 | 1013.3 |
| 20260906163956 | 37 | 258 | 3.2 | 3.2 | 0.00 | 0.00 | 0.00 | 42 | 1013.1 |
| 20260906163451 | 37 | 206 | 4.8 | 4.8 | 0.00 | 0.00 | 0.00 | 42 | 1013.1 |
| 20260906162950 | 37 | 254 | 3.2 | 3.2 | 0.00 | 0.00 | 0.00 | 43 | 1013.0 |
| 20260906162449 | 37 | 198 | 4.8 | 6.4 | 0.00 | 0.00 | 0.00 | 43 | 1012.9 |
| 20260906161944 | 37 | 253 | 0.0 | 0.0 | 0.00 | 0.00 | 0.00 | 43 | 1013.0 |
| 20260906161443 | 37 | 252 | 3.2 | 4.8 | 0.00 | 0.00 | 0.00 | 42 | 1013.0 |
| 20260906160942 | 37 | 214 | 3.2 | 4.8 | 0.00 | 0.00 | 0.00 | 42 | 1012.9 |
| 20260906160436 | 36 | 251 | 4.8 | 4.8 | 0.00 | 0.00 | 0.00 | 43 | 1013.0 |
| 20260906155935 | 36 | 237 | 6.4 | 9.7 | 0.00 | 0.00 | 0.00 | 42 | 1012.8 |
| 20260906155434 | 36 | 190 | 4.8 | 4.8 | 0.00 | 0.00 | 0.00 | 44 | 1012.8 |
| 20260906154930 | 36 | 228 | 1.6 | 3.2 | 0.00 | 0.00 | 0.00 | 45 | 1012.8 |
| 20260906154431 | 35 | 6 | 3.2 | 3.2 | 0.00 | 0.00 | 0.00 | 46 | 1012.9 |
| 20260906153929 | 36 | 312 | 1.6 | 1.6 | 0.00 | 0.00 | 0.00 | 46 | 1012.8 |
| 20260906153428 | 36 | 11 | 1.6 | 1.6 | 0.00 | 0.00 | 0.00 | 45 | 1012.8 |
| 20260906152923 | 36 | 330 | 3.2 | 3.2 | 0.00 | 0.00 | 0.00 | 45 | 1012.9 |
| 20260906152418 | 36 | 256 | 1.6 | 3.2 | 0.00 | 0.00 | 0.00 | 47 | 1013.0 |
| 20260906151917 | 35 | 274 | 0.0 | 0.0 | 0.00 | 0.00 | 0.00 | 49 | 1012.8 |
| 20260906151413 | 36 | 298 | 0.0 | 1.6 | 0.00 | 0.00 | 0.00 | 47 | 1012.6 |
| 20260906150909 | 35 | 246 | 1.6 | 3.2 | 0.00 | 0.00 | 0.00 | 49 | 1012.5 |
| 20260906150409 | 35 | 267 | 1.6 | 1.6 | 0.00 | 0.00 | 0.00 | 50 | 1012.3 |
| 20260906145908 | 35 | 291 | 0.0 | 0.0 | 0.00 | 0.00 | 0.00 | 51 | 1012.6 |
| 20260906145407 | 34 | 257 | 0.0 | 1.6 | 0.00 | 0.00 | 0.00 | 53 | 1012.5 |
| 20260906144902 | 34 | 278 | 0.0 | 1.6 | 0.00 | 0.00 | 0.00 | 52 | 1012.5 |
| 20260906144357 | 34 | 280 | 0.0 | 0.0 | 0.00 | 0.00 | 0.00 | 52 | 1012.5 |
| 20260906143852 | 34 | 303 | 0.0 | 0.0 | 0.00 | 0.00 | 0.00 | 53 | 1012.5 |
| 20260906143348 | 33 | 258 | 0.0 | 0.0 | 0.00 | 0.00 | 0.00 | 55 | 1012.8 |
| 20260906142844 | 33 | 264 | 0.0 | 1.6 | 0.00 | 0.00 | 0.00 | 56 | 1012.8 |
| 20260906142338 | 32 | 268 | 0.0 | 1.6 | 0.00 | 0.00 | 0.00 | 60 | 1012.8 |
| 20260906141838 | 31 | 24 | 0.0 | 0.0 | 0.00 | 0.00 | 0.00 | 61 | 1012.8 |
| 20260906141332 | 30 | 21 | 0.0 | 0.0 | 0.00 | 0.00 | 0.00 | 65 | 1012.9 |
| 20260906140832 | 29 | 313 | 0.0 | 0.0 | 0.00 | 0.00 | 0.00 | 69 | 1012.8 |
| 20260906140322 | 29 | 281 | 0.0 | 0.0 | 0.00 | 0.00 | 0.00 | 70 | 1012.8 |
| 20260906135819 | 28 | 309 | 0.0 | 0.0 | 0.00 | 0.00 | 0.00 | 71 | 1012.9 |
| 20260906135314 | 28 | 196 | 0.0 | 1.6 | 0.00 | 0.00 | 0.00 | 71 | 1012.8 |
| 20260906134809 | 28 | 248 | 0.0 | 0.0 | 0.00 | 0.00 | 0.00 | 72 | 1012.7 |
| 20260906134304 | 28 | 270 | 0.0 | 0.0 | 0.00 | 0.00 | 0.00 | 73 | 1012.6 |
| 20260906133800 | 28 | 309 | 0.0 | 0.0 | 0.00 | 0.00 | 0.00 | 75 | 1012.7 |
| 20260906133255 | 27 | 279 | 0.0 | 0.0 | 0.00 | 0.00 | 0.00 | 76 | 1012.6 |
| 20260906132751 | 27 | 267 | 0.0 | 0.0 | 0.00 | 0.00 | 0.00 | 76 | 1012.7 |
| 20260906132246 | 27 | 231 | 1.6 | 1.6 | 0.00 | 0.00 | 0.00 | 78 | 1012.6 |
| 20260906131741 | 27 | 271 | 0.0 | 0.0 | 0.00 | 0.00 | 0.00 | 79 | 1012.8 |
| 20260906131236 | 27 | 307 | 0.0 | 0.0 | 0.00 | 0.00 | 0.00 | 80 | 1012.7 |
| 20260906130732 | 26 | 261 | 0.0 | 0.0 | 0.00 | 0.00 | 0.00 | 80 | 1013.0 |
| 20260906130227 | 26 | 307 | 0.0 | 0.0 | 0.00 | 0.00 | 0.00 | 81 | 1012.6 |
| 20260906125725 | 26 | 267 | 0.0 | 0.0 | 0.00 | 0.00 | 0.00 | 82 | 1012.7 |
| 20260906125223 | 26 | 284 | 0.0 | 0.0 | 0.00 | 0.00 | 0.00 | 82 | 1012.6 |
| 20260906124718 | 26 | 302 | 0.0 | 0.0 | 0.00 | 0.00 | 0.00 | 83 | 1012.5 |
| 20260906124214 | 26 | 296 | 0.0 | 0.0 | 0.00 | 0.00 | 0.00 | 83 | 1012.2 |
| 20260906123712 | 26 | 293 | 0.0 | 0.0 | 0.00 | 0.00 | 0.00 | 84 | 1012.3 |
| 20260906123208 | 25 | 287 | 0.0 | 0.0 | 0.00 | 0.00 | 0.00 | 84 | 1012.4 |
| 20260906122707 | 25 | 289 | 0.0 | 0.0 | 0.00 | 0.00 | 0.00 | 84 | 1012.6 |
| 20260906122203 | 25 | 281 | 0.0 | 0.0 | 0.00 | 0.00 | 0.00 | 84 | 1012.4 |
| 20260906121659 | 25 | 288 | 0.0 | 0.0 | 0.00 | 0.00 | 0.00 | 84 | 1012.1 |
| 20260906121155 | 25 | 289 | 0.0 | 0.0 | 0.00 | 0.00 | 0.00 | 84 | 1012.3 |
| 20260906120651 | 25 | 289 | 0.0 | 0.0 | 0.00 | 0.00 | 0.00 | 83 | 1012.0 |
| 20260906120148 | 25 | 289 | 0.0 | 0.0 | 0.00 | 0.00 | 0.00 | 83 | 1012.0 |
| 20260906115648 | 25 | 289 | 0.0 | 0.0 | 0.00 | 0.00 | 0.00 | 82 | 1012.2 |
| 20260906115143 | 26 | 288 | 0.0 | 0.0 | 0.00 | 0.00 | 0.00 | 82 | 1012.0 |
| 20260906114642 | 26 | 291 | 0.0 | 0.0 | 0.00 | 0.00 | 0.00 | 81 | 1012.0 |
| 20260906114137 | 26 | 291 | 0.0 | 0.0 | 0.00 | 0.00 | 0.00 | 81 | 1012.1 |
| 20260906113632 | 26 | 277 | 0.0 | 0.0 | 0.00 | 0.00 | 0.00 | 81 | 1012.0 |
| 20260906113132 | 26 | 286 | 0.0 | 0.0 | 0.00 | 0.00 | 0.00 | 80 | 1012.1 |
| 20260906112631 | 26 | 291 | 0.0 | 0.0 | 0.00 | 0.00 | 0.00 | 80 | 1011.9 |
| 20260906112128 | 26 | 270 | 0.0 | 0.0 | 0.00 | 0.00 | 0.00 | 80 | 1011.8 |
| 20260906111628 | 26 | 272 | 0.0 | 0.0 | 0.00 | 0.00 | 0.00 | 80 | 1011.9 |
| 20260906111123 | 26 | 278 | 0.0 | 0.0 | 0.00 | 0.00 | 0.00 | 80 | 1011.8 |
| 20260906110618 | 26 | 294 | 0.0 | 0.0 | 0.00 | 0.00 | 0.00 | 80 | 1011.8 |
| 20260906110118 | 26 | 303 | 0.0 | 0.0 | 0.00 | 0.00 | 0.00 | 79 | 1011.6 |
| 20260906105612 | 26 | 274 | 0.0 | 0.0 | 0.00 | 0.00 | 0.00 | 79 | 1011.6 |
| 20260906105109 | 26 | 217 | 0.0 | 0.0 | 0.00 | 0.00 | 0.00 | 79 | 1011.6 |
| 20260906104608 | 26 | 226 | 0.0 | 0.0 | 0.00 | 0.00 | 0.00 | 80 | 1011.6 |
| 20260906104101 | 26 | 282 | 0.0 | 0.0 | 0.00 | 0.00 | 0.00 | 80 | 1011.6 |
| 20260906103600 | 26 | 282 | 0.0 | 0.0 | 0.00 | 0.00 | 0.00 | 80 | 1011.6 |
| 20260906103055 | 26 | 283 | 0.0 | 0.0 | 0.00 | 0.00 | 0.00 | 80 | 1011.4 |
| 20260906102555 | 26 | 283 | 0.0 | 0.0 | 0.00 | 0.00 | 0.00 | 80 | 1011.4 |
| 20260906102051 | 26 | 283 | 0.0 | 0.0 | 0.00 | 0.00 | 0.00 | 79 | 1011.4 |
| 20260906101551 | 26 | 279 | 0.0 | 0.0 | 0.00 | 0.00 | 0.00 | 79 | 1011.3 |
| 20260906101045 | 26 | 279 | 0.0 | 0.0 | 0.00 | 0.00 | 0.00 | 78 | 1011.6 |
| 20260906100541 | 26 | 279 | 0.0 | 0.0 | 0.00 | 0.00 | 0.00 | 78 | 1011.4 |
| 20260906100035 | 26 | 277 | 0.0 | 0.0 | 0.00 | 0.00 | 0.00 | 77 | 1011.4 |
| 20260906095530 | 26 | 274 | 0.0 | 0.0 | 0.00 | 0.00 | 0.00 | 77 | 1011.3 |
| 20260906095025 | 27 | 274 | 0.0 | 0.0 | 0.00 | 0.00 | 0.00 | 77 | 1011.5 |
| 20260906094524 | 27 | 268 | 0.0 | 0.0 | 0.00 | 0.00 | 0.00 | 76 | 1011.2 |
| 20260906094020 | 27 | 267 | 0.0 | 0.0 | 0.00 | 0.00 | 0.00 | 75 | 1011.1 |
| 20260906093516 | 27 | 262 | 0.0 | 0.0 | 0.00 | 0.00 | 0.00 | 75 | 1011.2 |
| 20260906093011 | 27 | 264 | 0.0 | 0.0 | 0.00 | 0.00 | 0.00 | 74 | 1011.1 |
| 20260906092511 | 27 | 252 | 0.0 | 0.0 | 0.00 | 0.00 | 0.00 | 74 | 1011.1 |
| 20260906092006 | 27 | 251 | 0.0 | 1.6 | 0.00 | 0.00 | 0.00 | 74 | 1010.8 |
| 20260906091501 | 27 | 241 | 0.0 | 0.0 | 0.00 | 0.00 | 0.00 | 74 | 1011.0 |
| 20260906090958 | 27 | 179 | 0.0 | 3.2 | 0.00 | 0.00 | 0.00 | 74 | 1011.2 |
| 20260906090453 | 27 | 235 | 0.0 | 0.0 | 0.00 | 0.00 | 0.00 | 73 | 1010.8 |
| 20260906085953 | 27 | 226 | 3.2 | 3.2 | 0.00 | 0.00 | 0.00 | 73 | 1010.9 |
| 20260906085452 | 27 | 183 | 0.0 | 1.6 | 0.00 | 0.00 | 0.00 | 73 | 1010.8 |
| 20260906084951 | 27 | 216 | 1.6 | 1.6 | 0.00 | 0.00 | 0.00 | 73 | 1011.0 |
| 20260906084446 | 27 | 200 | 0.0 | 0.0 | 0.00 | 0.00 | 0.00 | 73 | 1010.7 |
| 20260906083945 | 27 | 257 | 0.0 | 0.0 | 0.00 | 0.00 | 0.00 | 73 | 1010.7 |
| 20260906083441 | 28 | 281 | 0.0 | 0.0 | 0.00 | 0.00 | 0.00 | 72 | 1010.9 |
| 20260906082940 | 28 | 243 | 1.6 | 1.6 | 0.00 | 0.00 | 0.00 | 72 | 1010.6 |
| 20260906082436 | 28 | 207 | 0.0 | 1.6 | 0.00 | 0.00 | 0.00 | 72 | 1010.7 |
| 20260906081931 | 28 | 207 | 0.0 | 1.6 | 0.00 | 0.00 | 0.00 | 71 | 1010.9 |
| 20260906081426 | 28 | 260 | 1.6 | 1.6 | 0.00 | 0.00 | 0.00 | 71 | 1010.4 |
| 20260906080923 | 28 | 246 | 0.0 | 0.0 | 0.00 | 0.00 | 0.00 | 71 | 1010.7 |
| 20260906080419 | 28 | 226 | 1.6 | 1.6 | 0.00 | 0.00 | 0.00 | 71 | 1010.8 |
| 20260906075919 | 28 | 224 | 3.2 | 3.2 | 0.00 | 0.00 | 0.00 | 70 | 1010.7 |
| 20260906075414 | 28 | 224 | 0.0 | 0.0 | 0.00 | 0.00 | 0.00 | 70 | 1010.7 |
| 20260906074909 | 28 | 224 | 0.0 | 0.0 | 0.00 | 0.00 | 0.00 | 70 | 1010.8 |
| 20260906074408 | 28 | 200 | 0.0 | 0.0 | 0.00 | 0.00 | 0.00 | 70 | 1010.8 |
| 20260906073907 | 28 | 250 | 0.0 | 0.0 | 0.00 | 0.00 | 0.00 | 70 | 1010.8 |
| 20260906073402 | 28 | 203 | 0.0 | 0.0 | 0.00 | 0.00 | 0.00 | 69 | 1010.9 |
| 20260906072859 | 28 | 243 | 1.6 | 1.6 | 0.00 | 0.00 | 0.00 | 69 | 1010.7 |
| 20260906072354 | 28 | 255 | 0.0 | 0.0 | 0.00 | 0.00 | 0.00 | 68 | 1011.0 |
| 20260906071850 | 28 | 212 | 0.0 | 0.0 | 0.00 | 0.00 | 0.00 | 68 | 1010.9 |
| 20260906071345 | 28 | 263 | 0.0 | 0.0 | 0.00 | 0.00 | 0.00 | 68 | 1011.2 |
| 20260906070841 | 28 | 209 | 0.0 | 0.0 | 0.00 | 0.00 | 0.00 | 67 | 1011.0 |
| 20260906070337 | 28 | 263 | 0.0 | 0.0 | 0.00 | 0.00 | 0.00 | 67 | 1011.2 |
| 20260906065832 | 28 | 259 | 0.0 | 0.0 | 0.00 | 0.00 | 0.00 | 67 | 1011.4 |
| 20260906065326 | 28 | 260 | 0.0 | 0.0 | 0.00 | 0.00 | 0.00 | 66 | 1011.4 |
| 20260906064823 | 28 | 255 | 0.0 | 0.0 | 0.00 | 0.00 | 0.00 | 66 | 1011.1 |
| 20260906064319 | 28 | 255 | 0.0 | 0.0 | 0.00 | 0.00 | 0.00 | 66 | 1011.2 |
| 20260906063818 | 28 | 253 | 0.0 | 0.0 | 0.00 | 0.00 | 0.00 | 66 | 1011.2 |
| 20260906063314 | 29 | 241 | 0.0 | 0.0 | 0.00 | 0.00 | 0.00 | 66 | 1011.4 |
| 20260906062809 | 28 | 234 | 0.0 | 0.0 | 0.00 | 0.00 | 0.00 | 66 | 1011.1 |
| 20260906062308 | 28 | 257 | 0.0 | 0.0 | 0.00 | 0.00 | 0.00 | 66 | 1011.1 |
| 20260906061804 | 29 | 288 | 0.0 | 0.0 | 0.00 | 0.00 | 0.00 | 65 | 1010.9 |
| 20260906061300 | 29 | 268 | 0.0 | 0.0 | 0.00 | 0.00 | 0.00 | 65 | 1011.0 |
| 20260906060755 | 29 | 240 | 0.0 | 0.0 | 0.00 | 0.00 | 0.00 | 65 | 1011.0 |
| 20260906060253 | 29 | 255 | 0.0 | 0.0 | 0.00 | 0.00 | 0.00 | 65 | 1011.1 |
| 20260906055748 | 29 | 248 | 0.0 | 0.0 | 0.00 | 0.00 | 0.00 | 64 | 1011.0 |
| 20260906055243 | 29 | 252 | 0.0 | 0.0 | 0.00 | 0.00 | 0.00 | 64 | 1011.2 |
| 20260906054738 | 29 | 243 | 0.0 | 1.6 | 0.00 | 0.00 | 0.00 | 63 | 1011.2 |
| 20260906054234 | 29 | 209 | 1.6 | 3.2 | 0.00 | 0.00 | 0.00 | 64 | 1011.1 |
| 20260906053730 | 30 | 261 | 0.0 | 0.0 | 0.00 | 0.00 | 0.00 | 63 | 1011.0 |
| 20260906053226 | 30 | 264 | 0.0 | 0.0 | 0.00 | 0.00 | 0.00 | 63 | 1011.1 |
| 20260906052721 | 30 | 249 | 0.0 | 0.0 | 0.00 | 0.00 | 0.00 | 62 | 1011.3 |
| 20260906052217 | 30 | 210 | 0.0 | 1.6 | 0.00 | 0.00 | 0.00 | 62 | 1011.1 |
| 20260906051714 | 30 | 243 | 0.0 | 1.6 | 0.00 | 0.00 | 0.00 | 62 | 1011.0 |
| 20260906051213 | 30 | 257 | 0.0 | 0.0 | 0.00 | 0.00 | 0.00 | 61 | 1011.2 |
| 20260906050708 | 30 | 235 | 0.0 | 0.0 | 0.00 | 0.00 | 0.00 | 61 | 1011.2 |
| 20260906050203 | 30 | 187 | 1.6 | 3.2 | 0.00 | 0.00 | 0.00 | 61 | 1011.2 |
| 20260906045702 | 30 | 175 | 3.2 | 3.2 | 0.00 | 0.00 | 0.00 | 61 | 1011.4 |
| 20260906045157 | 30 | 272 | 1.6 | 3.2 | 0.00 | 0.00 | 0.00 | 61 | 1011.2 |
| 20260906044653 | 30 | 246 | 0.0 | 1.6 | 0.00 | 0.00 | 0.00 | 60 | 1011.0 |
| 20260906044148 | 30 | 220 | 1.6 | 1.6 | 0.00 | 0.00 | 0.00 | 60 | 1011.2 |
| 20260906043644 | 30 | 183 | 3.2 | 4.8 | 0.00 | 0.00 | 0.00 | 60 | 1011.2 |
| 20260906043139 | 30 | 196 | 3.2 | 3.2 | 0.00 | 0.00 | 0.00 | 59 | 1011.2 |
| 20260906042639 | 30 | 254 | 1.6 | 1.6 | 0.00 | 0.00 | 0.00 | 59 | 1011.2 |
| 20260906042133 | 30 | 191 | 3.2 | 3.2 | 0.00 | 0.00 | 0.00 | 59 | 1010.9 |
| 20260906041629 | 30 | 163 | 1.6 | 3.2 | 0.00 | 0.00 | 0.00 | 59 | 1011.1 |
| 20260906041130 | 30 | 167 | 4.8 | 6.4 | 0.00 | 0.00 | 0.00 | 58 | 1011.1 |
| 20260906040625 | 31 | 272 | 3.2 | 3.2 | 0.00 | 0.00 | 0.00 | 58 | 1011.0 |
| 20260906040121 | 31 | 188 | 3.2 | 4.8 | 0.00 | 0.00 | 0.00 | 57 | 1010.8 |
| 20260906035616 | 31 | 228 | 1.6 | 3.2 | 0.00 | 0.00 | 0.00 | 57 | 1010.9 |
| 20260906035111 | 31 | 199 | 0.0 | 3.2 | 0.00 | 0.00 | 0.00 | 57 | 1010.9 |
| 20260906034605 | 31 | 348 | 1.6 | 3.2 | 0.00 | 0.00 | 0.00 | 56 | 1011.2 |
| 20260906034100 | 31 | 248 | 1.6 | 1.6 | 0.00 | 0.00 | 0.00 | 56 | 1011.3 |
| 20260906033556 | 31 | 269 | 0.0 | 1.6 | 0.00 | 0.00 | 0.00 | 55 | 1011.1 |
| 20260906033051 | 31 | 261 | 0.0 | 0.0 | 0.00 | 0.00 | 0.00 | 55 | 1011.0 |
| 20260906032547 | 31 | 266 | 1.6 | 1.6 | 0.00 | 0.00 | 0.00 | 55 | 1011.1 |
| 20260906032042 | 31 | 247 | 0.0 | 1.6 | 0.00 | 0.00 | 0.00 | 54 | 1010.9 |
| 20260906031537 | 31 | 195 | 1.6 | 3.2 | 0.00 | 0.00 | 0.00 | 54 | 1011.1 |
| 20260906031033 | 31 | 224 | 3.2 | 4.8 | 0.00 | 0.00 | 0.00 | 54 | 1011.1 |
| 20260906030532 | 31 | 166 | 3.2 | 3.2 | 0.00 | 0.00 | 0.00 | 54 | 1011.0 |
| 20260906030032 | 31 | 220 | 1.6 | 1.6 | 0.00 | 0.00 | 0.00 | 53 | 1011.0 |
| 20260906025531 | 31 | 141 | 4.8 | 6.4 | 0.00 | 0.00 | 0.00 | 53 | 1011.3 |
| 20260906025030 | 31 | 153 | 3.2 | 3.2 | 0.00 | 0.00 | 0.00 | 53 | 1010.9 |
| 20260906024525 | 31 | 161 | 1.6 | 3.2 | 0.00 | 0.00 | 0.00 | 54 | 1010.9 |
| 20260906024025 | 32 | 230 | 1.6 | 1.6 | 0.00 | 0.00 | 0.00 | 53 | 1011.1 |
| 20260906023522 | 32 | 216 | 1.6 | 3.2 | 0.00 | 0.00 | 0.00 | 53 | 1010.8 |
| 20260906023016 | 32 | 213 | 1.6 | 1.6 | 0.00 | 0.00 | 0.00 | 52 | 1010.6 |
| 20260906022511 | 32 | 227 | 1.6 | 1.6 | 0.00 | 0.00 | 0.00 | 52 | 1010.5 |
| 20260906022007 | 32 | 213 | 3.2 | 3.2 | 0.00 | 0.00 | 0.00 | 51 | 1010.6 |
| 20260906021502 | 32 | 218 | 3.2 | 4.8 | 0.00 | 0.00 | 0.00 | 51 | 1010.4 |
| 20260906020956 | 32 | 225 | 3.2 | 3.2 | 0.00 | 0.00 | 0.00 | 50 | 1010.1 |
| 20260906020450 | 32 | 149 | 4.8 | 6.4 | 0.00 | 0.00 | 0.00 | 49 | 1010.3 |
| 20260906015950 | 33 | 224 | 6.4 | 11.3 | 0.00 | 0.00 | 0.00 | 49 | 1010.5 |
| 20260906015449 | 33 | 146 | 4.8 | 6.4 | 0.00 | 0.00 | 0.00 | 47 | 1010.2 |
| 20260906014949 | 33 | 174 | 3.2 | 3.2 | 0.00 | 0.00 | 0.00 | 46 | 1010.1 |
| 20260906014449 | 33 | 204 | 6.4 | 6.4 | 0.00 | 0.00 | 0.00 | 46 | 1009.8 |
| 20260906013945 | 34 | 196 | 6.4 | 9.7 | 0.00 | 0.00 | 0.00 | 46 | 1010.1 |
| 20260906013440 | 34 | 211 | 4.8 | 4.8 | 0.00 | 0.00 | 0.00 | 46 | 1010.0 |
| 20260906012937 | 34 | 243 | 4.8 | 6.4 | 0.00 | 0.00 | 0.00 | 45 | 1009.7 |
| 20260906012436 | 35 | 189 | 6.4 | 11.3 | 0.00 | 0.00 | 0.00 | 44 | 1009.6 |
| 20260906011936 | 35 | 210 | 4.8 | 4.8 | 0.00 | 0.00 | 0.00 | 41 | 1009.4 |
| 20260906011432 | 35 | 212 | 1.6 | 3.2 | 0.00 | 0.00 | 0.00 | 40 | 1009.3 |
| 20260906010927 | 35 | 250 | 1.6 | 1.6 | 0.00 | 0.00 | 0.00 | 40 | 1009.3 |
| 20260906010422 | 35 | 234 | 1.6 | 3.2 | 0.00 | 0.00 | 0.00 | 40 | 1009.3 |
| 20260906005918 | 35 | 244 | 1.6 | 1.6 | 0.00 | 0.00 | 0.00 | 39 | 1009.3 |
| 20260906005417 | 35 | 234 | 3.2 | 4.8 | 0.00 | 0.00 | 0.00 | 39 | 1009.3 |
| 20260906004916 | 35 | 223 | 3.2 | 4.8 | 0.00 | 0.00 | 0.00 | 39 | 1009.2 |
| 20260906004410 | 36 | 203 | 3.2 | 4.8 | 0.00 | 0.00 | 0.00 | 38 | 1009.1 |
| 20260906003906 | 36 | 208 | 1.6 | 3.2 | 0.00 | 0.00 | 0.00 | 38 | 1009.2 |
| 20260906003401 | 36 | 251 | 1.6 | 3.2 | 0.00 | 0.00 | 0.00 | 38 | 1009.3 |
| 20260906002856 | 36 | 234 | 1.6 | 3.2 | 0.00 | 0.00 | 0.00 | 37 | 1009.0 |
| 20260906002356 | 36 | 229 | 0.0 | 0.0 | 0.00 | 0.00 | 0.00 | 37 | 1009.2 |
| 20260906001851 | 36 | 219 | 0.0 | 1.6 | 0.00 | 0.00 | 0.00 | 37 | 1009.2 |
| 20260906001347 | 37 | 146 | 1.6 | 3.2 | 0.00 | 0.00 | 0.00 | 37 | 1009.2 |
| 20260906000842 | 37 | 243 | 0.0 | 0.0 | 0.00 | 0.00 | 0.00 | 36 | 1009.0 |
| 20260906000342 | 37 | 204 | 1.6 | 1.6 | 0.00 | 0.00 | 0.00 | 36 | 1008.9 |
| 20260905235842 | 37 | 198 | 6.4 | 6.4 | 0.00 | 0.00 | 0.00 | 35 | 1009.0 |
| 20260905235336 | 37 | 236 | 0.0 | 0.0 | 0.00 | 0.00 | 0.00 | 35 | 1008.9 |
| 20260905234832 | 38 | 282 | 0.0 | 0.0 | 0.00 | 0.00 | 0.00 | 34 | 1008.9 |
| 20260905234327 | 38 | 224 | 1.6 | 1.6 | 0.00 | 0.00 | 0.00 | 33 | 1008.7 |
| 20260905233822 | 38 | 325 | 0.0 | 0.0 | 0.00 | 0.00 | 0.00 | 32 | 1009.0 |
| 20260905233317 | 40 | 107 | 1.6 | 3.2 | 0.00 | 0.00 | 0.00 | 32 | 1008.9 |
| 20260905232816 | 41 | 219 | 3.2 | 3.2 | 0.00 | 0.00 | 0.00 | 30 | 1009.0 |
| 20260905232313 | 41 | 333 | 1.6 | 1.6 | 0.00 | 0.00 | 0.00 | 29 | 1008.9 |
| 20260905231808 | 42 | 211 | 4.8 | 4.8 | 0.00 | 0.00 | 0.00 | 28 | 1008.9 |
| 20260905231303 | 42 | 298 | 1.6 | 1.6 | 0.00 | 0.00 | 0.00 | 27 | 1009.0 |
| 20260905230759 | 43 | 223 | 1.6 | 3.2 | 0.00 | 0.00 | 0.00 | 27 | 1008.9 |